Location: Palo Alto
(37.4420°N, 122.1420°W)
Time: 11:04:27
(UTC-08:00)

ARGOS - Visible Passes

Search period start: 26 February 2017 00:00
Search period end: 08 March 2017 00:00
Orbit: 820 x 835 km, 98.6° (Epoch: 25 February)

Date Brightness Start Highest point End Pass type
(mag) Time Alt. Az. Time Alt. Az. Time Alt. Az.
28 Feb 5.7 20:58:23 11° N 20:58:23 11° N 20:58:30 10° N visible
01 Mar 5.6 20:39:29 11° N 20:39:29 11° N 20:39:37 10° N visible
03 Mar 5.9 21:43:11 11° NNW 21:43:11 11° NNW 21:43:19 10° NNW visible
04 Mar 5.7 21:24:17 13° N 21:24:17 13° N 21:24:46 10° N visible
05 Mar 5.5 21:05:23 14° N 21:05:23 14° N 21:06:05 10° N visible
06 Mar 5.4 20:46:29 14° N 20:46:29 14° N 20:47:15 10° N visible
07 Mar 5.4 20:27:34 13° NNE 20:27:34 13° NNE 20:28:15 10° NNE visible
07 Mar 6.1 22:09:05 10° NNW 22:09:05 10° NNW 22:09:06 10° NNW visible
